Location: Winter Haven
(28.0220°N, 81.7330°W)
Time: 16:57:42
(UTC-04:00)

Amateur Radio Satellites - All Passes

Search period start: 27 August 2014 16:27
Search period end: 28 August 2014 16:27
Location: Winter Haven, 28.0220°N, 81.7330°W

Satellite Date Start Highest point End Downlink Frequencies (MHz)
Time Altitude Azimuth
UOSAT-12 27 Aug 16:38:29 16:43:11 74° 63° (ENE) 16:47:47 437.025 FM, 437.400 FM
OPAL 27 Aug 16:45:03 16:47:51 15° 97° (E) 16:50:37 ?
AO-7 27 Aug 16:48:21 16:56:36 69° 71° (ENE) 17:04:52 29.400 - 29.500 MHz
PCSat 27 Aug 16:53:18 16:56:38 17° 105° (ESE) 16:59:59 145.825 MHz
Uosat F 27 Aug 17:05:40 17:10:41 84° 76° (ENE) 17:15:42 435.120 FM
PANSAT 27 Aug 17:18:51 17:22:42 77° 190° (S) 17:26:32 not established
TMSAT-1 27 Aug 17:19:14 17:21:12 12° 266° (W) 17:23:10 436.925 FM
AO-40 27 Aug 17:32:34 17:37:14 14° 162° (SSE) 17:46:03 Beacon 2401.320
RS-15 27 Aug 17:53:00 18:03:36 46° 57° (ENE) 18:14:33 29.354 - 29.394 USB, Beacon 29.352 USB
Sapphire 27 Aug 18:04:18 18:09:41 85° 112° (ESE) 18:15:07 437.095 MHz 1200 baud AX-25 AFSK
Oscar 10/S400 27 Aug 18:13:31 18:32:58 58° 152° (SSE) 19:01:26 145.825 - 145.975 CW/USB, Beacon 145.810 USB
OPAL 27 Aug 18:21:50 18:26:51 48° 288° (WNW) 18:31:49 ?
PCSat 27 Aug 18:34:29 18:39:36 44° 297° (WNW) 18:44:47 145.825 MHz
JAS-2 27 Aug 18:35:50 18:42:27 64° 75° (ENE) 18:48:18 435.800 - 435.900 CW/SSB, 435.910 FM
AO-7 27 Aug 18:44:15 18:49:44 19° 263° (W) 18:55:15 29.400 - 29.500 MHz
Hamsat 27 Aug 18:56:36 19:00:51 69° 259° (W) 19:05:09 145.90 MHz
PANSAT 27 Aug 18:59:19 19:02:41 29° 201° (SSW) 19:06:01 not established
SO-67 27 Aug 19:07:08 19:08:48 13° 72° (ENE) 19:10:27 435.3500 MHz FM
ISS 27 Aug 19:33:13 19:36:07 27° 42° (NE) 19:38:59 145.800 FM
STRAND 1 27 Aug 19:59:46 20:04:49 63° 102° (ESE) 20:09:51 ?
RS-15 27 Aug 20:05:31 20:15:41 42° 252° (WSW) 20:26:19 29.354 - 29.394 USB, Beacon 29.352 USB
HO-68 27 Aug 20:23:55 20:28:15 17° 63° (ENE) 20:32:34 435.675 MHz FM
JAS-2 27 Aug 20:24:17 20:27:32 14° 263° (W) 20:30:39 435.800 - 435.900 CW/SSB, 435.910 FM
SO-67 27 Aug 20:38:52 20:41:35 21° 263° (W) 20:44:18 435.3500 MHz FM
ISS 27 Aug 21:10:27 21:12:39 17° 234° (SW) 21:14:52 145.800 FM
STRAND 1 27 Aug 21:42:04 21:43:24 11° 294° (WNW) 21:44:45 ?
UKube-1 27 Aug 22:03:36 22:07:53 62° 76° (ENE) 22:12:11 145.840 MHz, 145.915 MHz
HO-68 27 Aug 22:08:08 22:15:13 69° 257° (WSW) 22:22:20 435.675 MHz FM
Oscar 11 27 Aug 22:13:26 22:17:32 45° 75° (ENE) 22:21:40 145.825 FM, Beacon 2401.500 USB
FUNcube-1 27 Aug 22:30:52 22:34:09 23° 72° (ENE) 22:37:27 145.950 - 145.970 MHz USB
Saudisat 1A 27 Aug 23:18:35 23:22:46 45° 113° (ESE) 23:26:58 436.775 MHz
Oscar 11 27 Aug 23:53:29 23:53:51 10° 266° (W) 23:54:14 145.825 FM, Beacon 2401.500 USB
KITSAT 1 27 Aug 23:57:21 00:05:05 52° 109° (ESE) 00:12:50 435.175 FM
FUNcube-1 28 Aug 00:07:33 00:10:26 18° 264° (W) 00:13:21 145.950 - 145.970 MHz USB
MaSat-1 28 Aug 00:43:12 00:47:35 75° 68° (ENE) 00:51:18 437.345 MHz
Saudisat 1A 28 Aug 01:00:20 01:02:31 13° 307° (NW) 01:04:43 436.775 MHz
KITSAT 1 28 Aug 01:53:57 02:00:40 28° 305° (NW) 02:07:25 435.175 FM
Oscar 19 28 Aug 02:02:52 02:06:41 20° 96° (E) 02:10:27 437.125 CW, 437.150 USB
ITAMSAT 1 28 Aug 02:28:54 02:31:40 15° 95° (E) 02:34:26 435.822 SSB
Oscar 16 28 Aug 02:36:08 02:41:10 50° 100° (E) 02:46:11 437.025 USB, Beacon 2401.1428
Uribyol 2 28 Aug 02:38:45 02:42:35 21° 97° (E) 02:46:24 436.500 FM
AO-Echo 28 Aug 02:54:42 02:58:50 30° 98° (E) 03:02:58 ?
AO-27 28 Aug 02:55:32 03:00:03 30° 98° (E) 03:04:34 436.795 MHz FM
Sapphire 28 Aug 03:00:49 03:04:13 17° 56° (NE) 03:07:37 437.095 MHz 1200 baud AX-25 AFSK
Gurwin Techsat 1B 28 Aug 03:07:04 03:10:09 16° 95° (E) 03:13:13 435.225 FM
PCSat 28 Aug 03:29:28 03:34:21 34° 61° (ENE) 03:39:12 145.825 MHz
Oscar 19 28 Aug 03:41:21 03:45:59 34° 288° (WNW) 03:50:35 437.125 CW, 437.150 USB
JAS-1B 28 Aug 03:51:14 03:57:49 86° 103° (ESE) 04:03:36 435.800 - 435.900 CW/SSB
OPAL 28 Aug 03:54:39 03:56:28 12° 64° (ENE) 03:58:18 ?
TMSAT-1 28 Aug 03:59:01 04:03:59 41° 99° (E) 04:08:56 436.925 FM
ITAMSAT 1 28 Aug 04:06:21 04:11:17 46° 286° (WNW) 04:16:13 435.822 SSB
Oscar 16 28 Aug 04:17:21 04:20:01 14° 293° (WNW) 04:22:42 437.025 USB, Beacon 2401.1428
Uribyol 2 28 Aug 04:17:24 04:22:00 33° 288° (WNW) 04:26:37 436.500 FM
SO-50 28 Aug 04:26:45 04:31:04 55° 114° (ESE) 04:35:28 436.795 FM
AO-Echo 28 Aug 04:34:09 04:37:20 18° 290° (WNW) 04:40:33 ?
AO-27 28 Aug 04:35:20 04:39:20 23° 290° (WNW) 04:43:21 436.795 MHz FM
Sapphire 28 Aug 04:42:38 04:47:52 50° 250° (WSW) 04:53:04 437.095 MHz 1200 baud AX-25 AFSK
Gurwin Techsat 1B 28 Aug 04:45:11 04:50:13 45° 287° (WNW) 04:55:14 435.225 FM
AO-7 28 Aug 04:58:27 05:05:51 36° 100° (E) 05:13:11 29.400 - 29.500 MHz
PCSat 28 Aug 05:13:20 05:17:30 23° 254° (WSW) 05:21:39 145.825 MHz
Uosat F 28 Aug 05:20:35 05:25:23 46° 100° (E) 05:30:10 435.120 FM
OPAL 28 Aug 05:29:51 05:34:46 59° 257° (WSW) 05:39:46 ?
TMSAT-1 28 Aug 05:40:02 05:43:31 18° 291° (WNW) 05:47:01 436.925 FM
SO-50 28 Aug 06:10:25 06:11:56 12° 308° (NW) 06:13:28 436.795 FM
UOSAT-12 28 Aug 06:42:49 06:47:21 71° 297° (WNW) 06:52:00 437.025 FM, 437.400 FM
Hamsat 28 Aug 06:49:34 06:53:33 35° 98° (E) 06:57:30 145.90 MHz
AO-7 28 Aug 06:50:59 06:58:29 40° 293° (WNW) 07:05:58 29.400 - 29.500 MHz
Uosat F 28 Aug 07:01:07 07:03:43 14° 292° (WNW) 07:06:19 435.120 FM
STRAND 1 28 Aug 07:08:58 07:13:46 43° 73° (ENE) 07:18:35 ?
JAS-2 28 Aug 07:36:45 07:42:02 79° 284° (WNW) 07:47:48 435.800 - 435.900 CW/SSB, 435.910 FM
RS-15 28 Aug 08:07:11 08:18:06 59° 110° (ESE) 08:28:41 29.354 - 29.394 USB, Beacon 29.352 USB
SO-67 28 Aug 08:08:43 08:11:57 38° 99° (E) 08:15:11 435.3500 MHz FM
Hamsat 28 Aug 08:26:57 08:29:08 14° 290° (WNW) 08:31:18 145.90 MHz
STRAND 1 28 Aug 08:50:11 08:53:03 15° 265° (W) 08:55:56 ?
Saudisat 1A 28 Aug 09:30:58 09:35:22 72° 63° (ENE) 09:39:44 436.775 MHz
HO-68 28 Aug 09:43:55 09:50:19 35° 99° (E) 09:56:41 435.675 MHz FM
KITSAT 1 28 Aug 09:53:23 10:01:03 45° 60° (ENE) 10:08:40 435.175 FM
UKube-1 28 Aug 09:59:48 10:02:51 19° 97° (E) 10:05:54 145.840 MHz, 145.915 MHz
Oscar 11 28 Aug 10:09:26 10:11:52 15° 95° (E) 10:14:18 145.825 FM, Beacon 2401.500 USB
RS-15 28 Aug 10:21:14 10:30:46 32° 308° (NW) 10:40:14 29.354 - 29.394 USB, Beacon 29.352 USB
ISS 28 Aug 10:34:27 10:37:08 23° 127° (SE) 10:39:49 145.800 FM
HO-68 28 Aug 11:31:34 11:37:49 34° 292° (WNW) 11:44:05 435.675 MHz FM
UKube-1 28 Aug 11:35:23 11:38:57 26° 288° (WNW) 11:42:32 145.840 MHz, 145.915 MHz
Oscar 11 28 Aug 11:44:10 11:48:03 32° 286° (WNW) 11:51:56 145.825 FM, Beacon 2401.500 USB
KITSAT 1 28 Aug 11:49:20 11:56:04 30° 254° (WSW) 12:02:48 435.175 FM
AO-40 28 Aug 11:49:27 03:10:42 54° 182° (S) 12:26:56 Beacon 2401.320
PANSAT 28 Aug 11:54:40 11:57:25 19° 155° (SSE) 12:00:11 not established
FUNcube-1 28 Aug 12:01:48 12:06:16 59° 284° (WNW) 12:10:47 145.950 - 145.970 MHz USB
ISS 28 Aug 12:11:13 12:13:48 20° 319° (NW) 12:16:22 145.800 FM
Oscar 19 28 Aug 13:14:06 13:16:57 15° 68° (ENE) 13:19:49 437.125 CW, 437.150 USB
PANSAT 28 Aug 13:33:30 13:37:18 58° 166° (SSE) 13:41:06 not established
ITAMSAT 1 28 Aug 13:41:54 13:43:25 11° 66° (ENE) 13:44:57 435.822 SSB
Oscar 16 28 Aug 13:46:27 13:51:06 36° 72° (ENE) 13:55:46 437.025 USB, Beacon 2401.1428
Uribyol 2 28 Aug 13:50:55 13:53:57 16° 68° (ENE) 13:56:59 436.500 FM
AO-Echo 28 Aug 14:01:20 14:05:09 21° 71° (ENE) 14:08:52 ?
AO-27 28 Aug 14:07:27 14:11:29 23° 70° (ENE) 14:15:30 436.795 MHz FM
Gurwin Techsat 1B 28 Aug 14:22:33 14:24:53 13° 67° (ENE) 14:27:13 435.225 FM
MaSat-1 28 Aug 14:23:30 14:28:06 68° 292° (WNW) 14:33:10 437.345 MHz
JAS-1B 28 Aug 14:24:08 14:33:25 48° 70° (ENE) 14:42:09 435.800 - 435.900 CW/SSB
SO-50 28 Aug 14:44:58 14:49:48 81° 245° (WSW) 14:54:39 436.795 FM
Oscar 19 28 Aug 14:50:55 14:55:50 47° 260° (W) 15:00:48 437.125 CW, 437.150 USB
TMSAT-1 28 Aug 15:13:11 15:17:50 32° 72° (ENE) 15:22:29 436.925 FM
PANSAT 28 Aug 15:13:35 15:17:27 83° 357° (N) 15:21:19 not established
ITAMSAT 1 28 Aug 15:17:12 15:22:19 63° 258° (WSW) 15:27:26 435.822 SSB
UOSAT-12 28 Aug 15:20:24 15:23:20 16° 54° (NE) 15:26:14 437.025 FM, 437.400 FM
Oscar 16 28 Aug 15:26:53 15:30:27 19° 264° (W) 15:34:02 437.025 USB, Beacon 2401.1428
Uribyol 2 28 Aug 15:28:06 15:33:00 44° 260° (W) 15:37:54 436.500 FM
AO-Echo 28 Aug 15:39:07 15:43:40 31° 261° (W) 15:48:07 ?
AO-27 28 Aug 15:46:16 15:50:46 30° 262° (W) 15:55:16 436.795 MHz FM
AO-7 28 Aug 15:50:40 15:57:16 27° 63° (ENE) 16:03:51 29.400 - 29.500 MHz
Gurwin Techsat 1B 28 Aug 15:59:06 16:04:17 57° 259° (W) 16:09:31 435.225 FM
PCSat 28 Aug 16:24:58 16:26:16 11° 103° (ESE) 16:27:34 145.825 MHz
